Location: Góry Miechowskie
(50.3599°N, 20.1803°E)
Time: 13:37:53
(UTC+00:00)

Cosmos 292 Rocket - Pass Details

Date: 15 June 2024
Orbit: 667 x 689 km, 74.0° (Epoch: 16 July)

Event Time Altitude Azimuth Distance (km) Brightness Sun altitude
Exits shadow 00:04:35 22° 202° (SSW) 1,470 4.8 -14.0°
Maximum altitude 00:07:41 89° 123° (ESE) 688 3.7 -13.8°
Drops below altitude 10° 00:12:31 10° 24° (NNE) 2,140 7.8 -13.5°
Sets 00:14:50 0° 25° (NNE) 3,063 9.2 -13.4°
